Jaipur / Sanganer, India

9:10 PM IST on January 22, 2017 (GMT +0530)
Jaipur

Weather History for VIJP - June, 2014

Change the Weather History Date:

Saturday, June 7, 2014

  Actual Average Record
Temperature  
Mean Temperature 102 °F -  
Max Temperature 116 °F - - ()
Min Temperature 89 °F - - ()
Cooling Degree Days 38    
Growing Degree Days 52 (Base 50)    
Moisture  
Dew Point 48 °F    
Average Humidity 15    
Maximum Humidity 25    
Minimum Humidity 6    
Precipitation  
Precipitation 0.00 in - - ()
Sea Level Pressure  
Sea Level Pressure 29.48 in    
Wind  
Wind Speed 8 mph ()    
Max Wind Speed 108 mph    
Max Gust Speed -    
Visibility 2.2 miles    
Events      
T = Trace of Precipitation, MM = Missing Value Source: Averaged Metar Reports

Daily Weather History Graph

Daily Weather History Graph

Search for Another Location

Airport or City:

Trip Planner

Search our weather history database for the weather conditions in past years. The results will help you decide how hot, cold, wet, or windy it might be!

Date:

Astronomy

Jun. 07, 2014 Rise Set
Actual Time 5:32 AM IST 7:18 PM IST
Civil Twilight 5:06 AM IST 7:45 PM IST
Nautical Twilight 4:34 AM IST 8:16 PM IST
Astronomical Twilight 4:01 AM IST 8:49 PM IST
Moon 1:39 PM IST (6/7) 1:07 AM IST (6/7)
Length of Visible Light 14h 38m
Length of Day
13h 46m
Waxing Gibbous, 64% of the Moon is Illuminated
Jun 7
Waxing Gibbous
Jun 13
Full
Jun 20
Last Quarter
Jun 27
New
Jul 5
First Quarter

Hourly Weather History & Observations

Time (IST) Temp. Heat Index Dew Point Humidity Pressure Visibility Wind Dir Wind Speed Gust Speed Precip Events Conditions
12:00 AM 96.8 °F 95.1 °F 55.4 °F 25% 29.53 in 1.9 mi Calm Calm - N/A   Haze
1:00 AM 96.8 °F 95.1 °F 55.4 °F 25% 29.53 in 1.9 mi WNW 5.8 mph - N/A   Haze
2:00 AM 96.8 °F 94.4 °F 53.6 °F 23% 29.53 in 1.9 mi NW 6.9 mph - N/A   Haze
2:30 AM 95 °F - 56 °F 18% 29.42 in 1 mi NW 4.6 mph - -   Haze
3:00 AM 95.0 °F 92.7 °F 53.6 °F 25% 29.50 in 1.9 mi NW 6.9 mph - N/A   Haze
5:00 AM 91.4 °F - 46.4 °F 21% 29.50 in 1.9 mi WNW 6.9 mph - N/A   Haze
5:30 AM 91 °F - 47 °F 13% 29.43 in 1 mi NW 4.6 mph - -   Haze
6:00 AM 89.6 °F - 46.4 °F 22% 29.53 in 1.9 mi WNW 5.8 mph - N/A   Haze
7:00 AM 93.2 °F - 46.4 °F 20% 29.53 in 1.9 mi NW 5.8 mph - N/A   Haze
8:00 AM 95.0 °F - 48.2 °F 20% 29.56 in 1.9 mi NW 9.2 mph - N/A   Haze
8:30 AM 97 °F - 52 °F 13% 29.44 in 2 mi NW 9.2 mph - -   Haze
9:00 AM 98.6 °F - 48.2 °F 18% 29.56 in 2.5 mi NW 9.2 mph - N/A   Haze
10:00 AM 102.2 °F - 48.2 °F 16% 29.56 in 2.5 mi NW 10.4 mph - N/A   Widespread Dust
11:00 AM 107.6 °F - 48.2 °F 14% 29.56 in 2.5 mi NW 9.2 mph - N/A   Widespread Dust
11:30 AM 109 °F - 51 °F 8% 29.42 in 2 mi WNW 11.5 mph - -   Blowing Sand
12:00 PM 109.4 °F - 46.4 °F 12% 29.53 in 2.5 mi Variable 9.2 mph - N/A   Widespread Dust
1:00 PM 111.2 °F - 42.8 °F 10% 29.53 in 2.5 mi NW 8.1 mph - N/A   Widespread Dust
2:00 PM 113.0 °F - 37.4 °F 8% 29.50 in 2.5 mi NW 12.7 mph - N/A   Widespread Dust
2:30 PM 114 °F - 74 °F 20% 29.36 in 2 mi West 16.1 mph - -   Blowing Sand
4:00 PM 113.0 °F - 37.4 °F 8% 29.44 in 3.7 mi NW 9.2 mph - N/A   Partly Cloudy
5:00 PM 113.0 °F - 37.4 °F 8% 29.44 in 3.7 mi NW 8.1 mph - N/A   Unknown
5:30 PM 113 °F - 47 °F 6% 29.31 in 2 mi NNW 5.8 mph - -   Scattered Clouds
8:00 PM 104.0 °F - 42.8 °F 12% 29.47 in 2.5 mi WNW 4.6 mph - N/A   Haze
8:30 PM 104 °F - 49 °F 9% 29.35 in 2 mi WNW 4.6 mph - -   Haze
9:00 PM 102.2 °F - 44.6 °F 14% 29.47 in 2.5 mi WNW 4.6 mph - N/A   Haze
11:00 PM 100.4 °F - 42.8 °F 14% 29.50 in 2.5 mi NW 4.6 mph - N/A   Haze
11:30 PM 99 °F - 45 °F 9% 29.38 in 2 mi SSW 108.2 mph - -   Haze